SWR458 LSZH-EGLL

Flight info

Callsign SWR458
Flight time N/A
Altitude 40000
Route VEBIT T10 TORPA DCT REKLA DCT RLP DCT ROTSI DCT KOTUN DCT NINAL DCT ABNUR DCT DIMAL DCT ALESO
Aircraft A359/H-SDE2E3GHIJ3J4J5LM1ORWXY/LB1D1

Departure

Time 2026-04-30 06:48
Airport Zürich Airport (LSZH)

Arrival

Time N/A
Airport London Heathrow Airport (EGLL)
Time Latitude Longitude Altitude Speed Heading
2026-04-30 06:24 47.45185 8.55806 1412 ft 0 kts 186°
2026-04-30 06:36 47.45186 8.55807 1412 ft 2 kts 186°
2026-04-30 06:36 47.45202 8.55809 1413 ft 2 kts 186°
2026-04-30 06:36 47.45218 8.55812 1409 ft 2 kts 186°
2026-04-30 06:36 47.45234 8.55815 1413 ft 2 kts 203°
2026-04-30 06:37 47.45247 8.55829 1413 ft 2 kts 235°
2026-04-30 06:37 47.45254 8.55850 1413 ft 2 kts 266°
2026-04-30 06:37 47.45254 8.55861 1413 ft 0 kts 277°
2026-04-30 06:42 47.45254 8.55858 1403 ft 2 kts 277°
2026-04-30 06:42 47.45260 8.55781 1410 ft 11 kts 276°
2026-04-30 06:42 47.45269 8.55661 1403 ft 11 kts 276°
2026-04-30 06:42 47.45311 8.55557 1411 ft 13 kts 327°
2026-04-30 06:43 47.45401 8.55491 1411 ft 16 kts 334°
2026-04-30 06:43 47.45507 8.55418 1410 ft 18 kts 335°
2026-04-30 06:43 47.45616 8.55344 1410 ft 14 kts 339°
2026-04-30 06:43 47.45668 8.55408 1411 ft 12 kts 89°
2026-04-30 06:44 47.45661 8.55542 1408 ft 15 kts 95°
2026-04-30 06:44 47.45650 8.55707 1406 ft 17 kts 97°
2026-04-30 06:44 47.45636 8.55895 1408 ft 20 kts 96°
2026-04-30 06:44 47.45621 8.56107 1403 ft 22 kts 96°
2026-04-30 06:45 47.45607 8.56306 1409 ft 19 kts 96°
2026-04-30 06:45 47.45593 8.56506 1409 ft 12 kts 96°
2026-04-30 06:45 47.45584 8.56635 1408 ft 14 kts 96°
2026-04-30 06:45 47.45574 8.56762 1411 ft 12 kts 96°
2026-04-30 06:46 47.45565 8.56897 1403 ft 15 kts 96°
2026-04-30 06:46 47.45582 8.56999 1410 ft 9 kts 46°
2026-04-30 06:46 47.45638 8.57021 1411 ft 7 kts 354°
2026-04-30 06:46 47.45665 8.56966 1410 ft 8 kts 287°
2026-04-30 06:47 47.45667 8.56934 1407 ft 0 kts 275°
2026-04-30 06:47 47.45670 8.56884 1409 ft 20 kts 275°
2026-04-30 06:48 47.45721 8.56175 1412 ft 118 kts 276°
2026-04-30 06:48 47.45832 8.54594 1710 ft 174 kts 278°
2026-04-30 06:48 47.45966 8.52775 2845 ft 188 kts 279°
2026-04-30 06:48 47.46145 8.50794 3350 ft 201 kts 279°
2026-04-30 06:49 47.46164 8.48597 3663 ft 231 kts 256°
2026-04-30 06:49 47.45312 8.46473 4002 ft 254 kts 221°
2026-04-30 06:49 47.44037 8.44543 4663 ft 268 kts 227°
2026-04-30 06:49 47.42845 8.42391 5595 ft 273 kts 230°
2026-04-30 06:50 47.41704 8.40168 6555 ft 277 kts 232°
2026-04-30 06:50 47.40556 8.37845 7498 ft 282 kts 233°
2026-04-30 06:50 47.39406 8.35463 8498 ft 288 kts 234°
2026-04-30 06:50 47.38364 8.32913 9486 ft 293 kts 241°
2026-04-30 06:51 47.37399 8.30234 10428 ft 300 kts 243°
2026-04-30 06:51 47.36397 8.27401 10939 ft 324 kts 243°
2026-04-30 06:51 47.35322 8.24367 11475 ft 342 kts 243°
2026-04-30 06:51 47.34214 8.21230 12410 ft 348 kts 243°
2026-04-30 06:52 47.33071 8.18020 13198 ft 357 kts 243°
2026-04-30 06:52 47.31917 8.14783 14023 ft 366 kts 244°
2026-04-30 06:52 47.30731 8.11443 14821 ft 371 kts 243°
2026-04-30 06:52 47.29532 8.08071 15738 ft 372 kts 244°
2026-04-30 06:53 47.28328 8.04667 16537 ft 378 kts 245°
2026-04-30 06:53 47.27404 8.01036 17252 ft 382 kts 259°
2026-04-30 06:53 47.27181 7.97148 18017 ft 382 kts 275°
2026-04-30 06:53 47.27367 7.93227 18781 ft 386 kts 279°
2026-04-30 06:54 47.27728 7.89289 19501 ft 390 kts 282°
2026-04-30 06:54 47.28165 7.85319 20235 ft 395 kts 283°
2026-04-30 06:54 47.28619 7.81303 20981 ft 400 kts 283°
2026-04-30 06:54 47.29058 7.77282 21700 ft 406 kts 282°
2026-04-30 06:55 47.29487 7.73147 22426 ft 411 kts 282°
2026-04-30 06:55 47.29900 7.68955 23124 ft 416 kts 282°
2026-04-30 06:55 47.30341 7.64715 23850 ft 420 kts 285°
2026-04-30 06:55 47.31052 7.60535 24447 ft 423 kts 289°
2026-04-30 06:56 47.31877 7.56360 25051 ft 426 kts 290°
2026-04-30 06:56 47.32761 7.52164 25659 ft 430 kts 291°
2026-04-30 06:56 47.33678 7.47947 26223 ft 434 kts 291°
2026-04-30 06:56 47.34610 7.43706 26865 ft 437 kts 291°
2026-04-30 06:57 47.35538 7.39478 27463 ft 441 kts 291°
2026-04-30 06:57 47.36487 7.35142 27873 ft 449 kts 291°
2026-04-30 06:57 47.37446 7.30726 28399 ft 454 kts 291°
2026-04-30 06:57 47.38408 7.26269 28998 ft 457 kts 290°
2026-04-30 06:58 47.39373 7.21777 29558 ft 461 kts 290°
2026-04-30 06:58 47.40336 7.17237 30099 ft 466 kts 289°
2026-04-30 06:58 47.41129 7.12575 30574 ft 470 kts 285°
2026-04-30 06:58 47.41860 7.07866 31089 ft 472 kts 285°
2026-04-30 06:59 47.42567 7.03133 31608 ft 473 kts 284°
2026-04-30 06:59 47.43253 6.98437 32088 ft 475 kts 284°
2026-04-30 06:59 47.43944 6.93660 32560 ft 477 kts 284°
2026-04-30 06:59 47.44638 6.88858 33015 ft 479 kts 284°
2026-04-30 07:00 47.45334 6.84036 33443 ft 481 kts 284°
2026-04-30 07:00 47.46033 6.79188 33880 ft 483 kts 284°
2026-04-30 07:00 47.46734 6.74327 34275 ft 485 kts 284°
2026-04-30 07:00 47.47437 6.69444 34624 ft 487 kts 284°
2026-04-30 07:01 47.47996 6.64503 34935 ft 490 kts 279°
2026-04-30 07:01 47.48416 6.59494 35332 ft 490 kts 279°
2026-04-30 07:01 47.48798 6.54501 35812 ft 486 kts 278°
2026-04-30 07:01 47.49149 6.49617 36369 ft 482 kts 278°
2026-04-30 07:02 47.49493 6.44706 36849 ft 480 kts 278°
2026-04-30 07:02 47.49833 6.39805 37289 ft 478 kts 278°
2026-04-30 07:02 47.50170 6.34938 37787 ft 474 kts 278°
2026-04-30 07:02 47.50504 6.30102 38298 ft 471 kts 278°
2026-04-30 07:03 47.50835 6.25304 38740 ft 468 kts 278°
2026-04-30 07:03 47.51166 6.20504 39001 ft 469 kts 279°
2026-04-30 07:03 47.51498 6.15709 39217 ft 469 kts 278°
2026-04-30 07:03 47.51829 6.10909 39464 ft 469 kts 278°
2026-04-30 07:04 47.52156 6.06107 39703 ft 469 kts 278°
2026-04-30 07:04 47.52480 6.01312 39955 ft 468 kts 279°
2026-04-30 07:04 47.52797 5.96581 40125 ft 469 kts 278°
2026-04-30 07:05 47.55586 5.82939 40145 ft 464 kts 302°
2026-04-30 07:05 47.59510 5.75365 40153 ft 465 kts 313°
2026-04-30 07:06 47.63877 5.68293 40155 ft 465 kts 314°
2026-04-30 07:06 47.68285 5.61290 40158 ft 463 kts 314°
2026-04-30 07:07 47.72638 5.54301 40160 ft 465 kts 314°
2026-04-30 07:07 47.77009 5.47210 40157 ft 465 kts 314°
2026-04-30 07:08 47.81362 5.40114 40164 ft 464 kts 314°
2026-04-30 07:08 47.85708 5.33012 40169 ft 465 kts 314°
2026-04-30 07:09 47.90062 5.25870 40167 ft 465 kts 314°
2026-04-30 07:09 47.94387 5.18782 40170 ft 466 kts 314°
2026-04-30 07:10 47.98739 5.11602 40168 ft 466 kts 314°
2026-04-30 07:10 48.03085 5.04418 40169 ft 467 kts 313°
2026-04-30 07:11 48.07442 4.97205 40166 ft 468 kts 313°
2026-04-30 07:11 48.11775 4.90010 40169 ft 469 kts 313°
2026-04-30 07:12 48.16124 4.82762 40170 ft 467 kts 314°
2026-04-30 07:12 48.20458 4.75521 40167 ft 466 kts 313°
2026-04-30 07:13 48.24788 4.68274 40172 ft 468 kts 313°
2026-04-30 07:13 48.29138 4.60975 40175 ft 469 kts 314°
2026-04-30 07:14 48.33455 4.53714 40182 ft 469 kts 314°
2026-04-30 07:14 48.37793 4.46389 40179 ft 469 kts 313°
2026-04-30 07:15 48.42126 4.39050 40185 ft 469 kts 313°
2026-04-30 07:15 48.46453 4.31690 40185 ft 469 kts 313°
2026-04-30 07:16 48.50788 4.24317 40186 ft 471 kts 313°
2026-04-30 07:16 48.55109 4.16945 40199 ft 472 kts 313°
2026-04-30 07:17 48.59457 4.09501 40203 ft 472 kts 313°
2026-04-30 07:18 48.65952 3.98333 40206 ft 471 kts 313°
2026-04-30 07:18 48.70243 3.90933 40207 ft 471 kts 313°
2026-04-30 07:19 48.74604 3.83552 40206 ft 470 kts 316°
2026-04-30 07:19 48.79283 3.76630 40207 ft 470 kts 319°
2026-04-30 07:20 48.84017 3.69815 40205 ft 469 kts 318°
2026-04-30 07:20 48.88713 3.62906 40205 ft 470 kts 317°
2026-04-30 07:21 48.93372 3.55942 40204 ft 470 kts 316°
2026-04-30 07:21 48.97992 3.48986 40198 ft 471 kts 316°
2026-04-30 07:22 49.05020 3.38376 40202 ft 475 kts 317°
2026-04-30 07:22 49.09712 3.31272 40199 ft 475 kts 317°
2026-04-30 07:23 49.14399 3.24162 40205 ft 475 kts 316°
2026-04-30 07:23 49.19076 3.17038 40202 ft 475 kts 317°
2026-04-30 07:24 49.21603 3.13186 40210 ft 475 kts 316°
2026-04-30 07:25 49.23474 3.10327 40202 ft 475 kts 317°
2026-04-30 07:26 49.28173 3.03141 40217 ft 479 kts 316°
2026-04-30 07:26 49.32879 2.95915 40202 ft 478 kts 316°
2026-04-30 07:27 49.37574 2.88690 40200 ft 479 kts 316°
2026-04-30 07:27 49.42266 2.81452 40201 ft 478 kts 316°
2026-04-30 07:28 49.46921 2.74220 40044 ft 482 kts 315°
2026-04-30 07:28 49.49245 2.70463 39836 ft 488 kts 314°
2026-04-30 07:28 49.51524 2.66576 39732 ft 490 kts 312°
2026-04-30 07:29 49.55839 2.58493 39835 ft 487 kts 309°